Weather History for Cleveland, OH

Change the Weather History Date:

Monday, June 24, 2013

  Actual Average Record
Temperature  
Mean Temperature 79 °F 72 °F  
Max Temperature 89 °F 81 °F 96 °F (1952)
Min Temperature 68 °F 62 °F 44 °F (1915)
Degree Days  
Heating Degree Days 0 1  
Month to date heating degree days 39 40  
Since 1 June heating degree days 39 40  
Since 1 July heating degree days 5809 5760  
Cooling Degree Days 14 7  
Month to date cooling degree days 110 121  
Year to date cooling degree days 224 180  
Since 1 June cooling degree days 110 121  
Growing Degree Days 28 (Base 50)    
Moisture  
Dew Point 64 °F    
Average Humidity 61    
Maximum Humidity 78    
Minimum Humidity 43    
Precipitation  
Precipitation 0.00 in 0.11 in 3.54 in (2014)
Month to date precipitation 3.65 2.76  
Year to date precipitation 16.24 17.90  
Snow  
Snow 0.00 in 0.00 in - ()
Month to date snowfall 0.0 0.0  
Since 1 June snowfall 0.0 0.0  
Since 1 July snowfall 51.7 68.1  
Snow Depth 0.00 in    
Sea Level Pressure  
Sea Level Pressure 30.06 in    
Wind  
Wind Speed 10 mph (SSW)    
Max Wind Speed 18 mph    
Max Gust Speed 23 mph    
Visibility 10 miles    
Events      
T = Trace of Precipitation, MM = Missing Value Source: NWS Daily Summary

Daily Weather History Graph

Daily Weather History Graph

Search for Another Location

Airport:

Trip Planner

Search our weather history database for the weather conditions in past years. The results will help you decide how hot, cold, wet, or windy it might be!

Date:

Astronomy

Jun. 24, 2013 Rise Set
Actual Time 5:54 AM EDT 9:04 PM EDT
Civil Twilight 5:20 AM EDT 9:38 PM EDT
Nautical Twilight 4:37 AM EDT 10:22 PM EDT
Astronomical Twilight 3:45 AM EDT 11:14 PM EDT
Moon 10:04 PM EDT (6/24) 7:22 AM EDT (6/24)
Length of Visible Light 16h 17m
Length of Day
15h 10m
Full, 98% of the Moon is Illuminated
Jun 24
Full
Jun 30
Last Quarter
Jul 8
New
Jul 15
First Quarter
Jul 22
Full

Hourly Weather History & Observations

Time (EDT) Temp. Heat Index Dew Point Humidity Pressure Visibility Wind Dir Wind Speed Gust Speed Precip Events Conditions
12:51 AM 75.0 °F - 62.1 °F 64% 30.08 in 10.0 mi South 8.1 mph - N/A   Scattered Clouds
1:51 AM 73.9 °F - 62.1 °F 66% 30.08 in 10.0 mi South 9.2 mph - N/A   Mostly Cloudy
2:51 AM 73.0 °F - 61.0 °F 66% 30.08 in 10.0 mi SSW 11.5 mph - N/A   Mostly Cloudy
3:51 AM 72.0 °F - 61.0 °F 68% 30.08 in 10.0 mi SSW 9.2 mph - N/A   Mostly Cloudy
4:51 AM 69.1 °F - 61.0 °F 75% 30.10 in 10.0 mi SW 4.6 mph - N/A   Partly Cloudy
5:51 AM 69.1 °F - 61.0 °F 75% 30.10 in 10.0 mi South 5.8 mph - N/A   Partly Cloudy
6:51 AM 70.0 °F - 62.1 °F 76% 30.11 in 10.0 mi SSW 5.8 mph - N/A   Partly Cloudy
7:51 AM 73.0 °F - 63.0 °F 71% 30.12 in 10.0 mi SSW 8.1 mph - N/A   Partly Cloudy
8:51 AM 75.9 °F - 64.0 °F 67% 30.12 in 10.0 mi WSW 9.2 mph - N/A   Partly Cloudy
9:51 AM 80.1 °F 81.9 °F 64.9 °F 60% 30.12 in 10.0 mi SW 10.4 mph - N/A   Partly Cloudy
10:51 AM 82.0 °F 83.8 °F 64.9 °F 56% 30.12 in 10.0 mi SW 12.7 mph - N/A   Clear
11:51 AM 84.9 °F 87.1 °F 66.0 °F 53% 30.11 in 10.0 mi WSW 12.7 mph - N/A   Partly Cloudy
12:51 PM 86.0 °F 87.6 °F 64.9 °F 49% 30.11 in 10.0 mi SW 11.5 mph 20.7 mph N/A   Scattered Clouds
1:51 PM 88.0 °F 89.3 °F 64.0 °F 45% 30.08 in 10.0 mi WSW 16.1 mph 23.0 mph N/A   Scattered Clouds
2:51 PM 88.0 °F 88.4 °F 62.1 °F 42% 30.05 in 10.0 mi SSW 15.0 mph 23.0 mph N/A   Partly Cloudy
3:51 PM 88.0 °F 88.7 °F 63.0 °F 43% 30.03 in 10.0 mi SSW 9.2 mph - N/A   Partly Cloudy
4:51 PM 87.1 °F 88.3 °F 64.0 °F 46% 30.01 in 10.0 mi SW 16.1 mph - N/A   Scattered Clouds
5:51 PM 86.0 °F 86.8 °F 63.0 °F 46% 30.01 in 10.0 mi SW 12.7 mph - N/A   Partly Cloudy
6:51 PM 84.9 °F 86.6 °F 64.9 °F 51% 29.98 in 10.0 mi SSW 10.4 mph - N/A   Partly Cloudy
7:51 PM 82.9 °F 84.6 °F 64.9 °F 54% 29.99 in 10.0 mi SSW 9.2 mph - N/A   Scattered Clouds
8:51 PM 82.0 °F 84.1 °F 66.0 °F 58% 29.99 in 10.0 mi SSW 10.4 mph - N/A   Scattered Clouds
9:51 PM 81.0 °F 83.0 °F 66.0 °F 60% 29.99 in 10.0 mi SSW 9.2 mph - N/A   Scattered Clouds
10:51 PM 79.0 °F - 66.0 °F 64% 30.00 in 10.0 mi South 10.4 mph - N/A   Mostly Cloudy
11:51 PM 78.1 °F - 66.0 °F 66% 30.01 in 10.0 mi SSW 9.2 mph - N/A   Mostly Cloudy